Time,TemperatureF,DewpointF,PressureIn,WindDirection,WindDirectionDegrees,WindSpeedMPH,WindSpeedGustMPH,Humidity,HourlyPrecipIn,Conditions,Clouds,dailyrainin,SoftwareType,DateUTC
2013-01-07 00:10:00,36.3,35.8,29.92,West,270,0.0,-999.0,98,-99.99,,,0.00,Acu-Link.com,2013-01-07 05:10:00,
2013-01-07 00:25:00,35.6,35.1,29.92,ESE,112,0.0,-999.0,98,-99.99,,,0.00,Acu-Link.com,2013-01-07 05:25:00,
2013-01-07 00:40:00,34.9,34.4,29.92,ENE,67,0.0,-999.0,98,-99.99,,,0.00,Acu-Link.com,2013-01-07 05:40:00,
2013-01-07 00:56:00,34.5,34.0,29.92,ESE,112,0.0,-999.0,98,-99.99,,,0.00,Acu-Link.com,2013-01-07 05:56:00,
2013-01-07 01:11:00,34.3,33.8,29.92,West,270,0.0,-999.0,98,-99.99,,,0.00,Acu-Link.com,2013-01-07 06:11:00,
2013-01-07 01:26:00,33.8,33.3,29.92,East,90,0.0,-999.0,98,-99.99,,,0.00,Acu-Link.com,2013-01-07 06:26:00,
2013-01-07 01:41:00,33.4,32.9,29.92,ESE,112,0.0,-999.0,98,-99.99,,,0.00,Acu-Link.com,2013-01-07 06:41:00,
2013-01-07 01:57:00,33.3,32.8,29.92,ENE,67,0.0,-999.0,98,-99.99,,,0.00,Acu-Link.com,2013-01-07 06:57:00,
2013-01-07 02:12:00,32.9,32.4,29.92,ESE,112,0.0,-999.0,98,-99.99,,,0.00,Acu-Link.com,2013-01-07 07:12:00,
2013-01-07 02:27:00,32.7,32.2,29.92,South,180,0.0,-999.0,98,-99.99,,,0.00,Acu-Link.com,2013-01-07 07:27:00,
2013-01-07 02:43:00,32.5,32.0,29.92,ESE,112,0.0,-999.0,98,-99.99,,,0.00,Acu-Link.com,2013-01-07 07:43:00,
2013-01-07 02:58:00,32.4,31.9,29.92,South,180,0.0,-999.0,98,-99.99,,,0.00,Acu-Link.com,2013-01-07 07:58:00,
2013-01-07 03:13:00,32.0,31.5,29.92,ENE,67,0.0,-999.0,98,-99.99,,,0.00,Acu-Link.com,2013-01-07 08:13:00,
2013-01-07 03:29:00,31.6,31.1,29.92,WNW,292,0.0,-999.0,98,-99.99,,,0.00,Acu-Link.com,2013-01-07 08:29:00,
2013-01-07 03:44:00,31.5,31.0,29.92,West,270,0.0,-999.0,98,-99.99,,,0.00,Acu-Link.com,2013-01-07 08:44:00,
2013-01-07 03:59:00,31.3,30.8,29.92,West,270,0.0,-999.0,98,-99.99,,,0.00,Acu-Link.com,2013-01-07 08:59:00,
2013-01-07 04:14:00,30.9,30.4,29.92,ESE,112,0.0,-999.0,98,-99.99,,,0.00,Acu-Link.com,2013-01-07 09:14:00,
2013-01-07 04:29:00,30.6,30.1,29.92,ESE,112,0.0,-999.0,98,-99.99,,,0.00,Acu-Link.com,2013-01-07 09:29:00,
2013-01-07 04:45:00,30.2,29.7,29.92,East,90,0.0,-999.0,98,-99.99,,,0.00,Acu-Link.com,2013-01-07 09:45:00,
2013-01-07 05:00:00,30.0,29.5,29.92,SE,135,0.0,-999.0,98,-99.99,,,0.00,Acu-Link.com,2013-01-07 10:00:00,
2013-01-07 05:16:00,29.8,29.3,29.92,SSW,202,0.0,-999.0,98,-99.99,,,0.00,Acu-Link.com,2013-01-07 10:16:00,
2013-01-07 05:31:00,29.7,29.2,29.92,West,270,0.0,-999.0,98,-99.99,,,0.00,Acu-Link.com,2013-01-07 10:31:00,
2013-01-07 05:46:00,29.5,29.0,29.92,NNW,337,0.0,-999.0,98,-99.99,,,0.00,Acu-Link.com,2013-01-07 10:46:00,
2013-01-07 06:02:00,29.3,28.8,29.92,West,270,0.0,-999.0,98,-99.99,,,0.00,Acu-Link.com,2013-01-07 11:02:00,
2013-01-07 06:17:00,29.3,28.8,29.92,West,270,0.0,-999.0,98,-99.99,,,0.00,Acu-Link.com,2013-01-07 11:17:00,
2013-01-07 06:32:00,29.3,28.8,29.92,ESE,112,0.0,-999.0,98,-99.99,,,0.00,Acu-Link.com,2013-01-07 11:32:00,
2013-01-07 06:48:00,29.5,29.0,29.92,NNW,337,0.0,-999.0,98,-99.99,,,0.00,Acu-Link.com,2013-01-07 11:48:00,
2013-01-07 07:03:00,29.8,29.3,29.92,North,0,0.0,-999.0,98,-99.99,,,0.00,Acu-Link.com,2013-01-07 12:03:00,
2013-01-07 07:19:00,29.5,29.0,29.92,West,270,0.0,-999.0,98,-99.99,,,0.00,Acu-Link.com,2013-01-07 12:19:00,
2013-01-07 07:34:00,29.3,28.8,29.92,WNW,292,0.0,-999.0,98,-99.99,,,0.00,Acu-Link.com,2013-01-07 12:34:00,
2013-01-07 07:49:00,29.1,28.6,29.92,SSE,157,0.0,-999.0,98,-99.99,,,0.00,Acu-Link.com,2013-01-07 12:49:00,
2013-01-07 08:05:00,29.8,29.3,29.92,SSE,157,0.0,-999.0,98,-99.99,,,0.00,Acu-Link.com,2013-01-07 13:05:00,
2013-01-07 08:20:00,30.6,30.1,29.92,SSE,157,0.0,-999.0,98,-99.99,,,0.00,Acu-Link.com,2013-01-07 13:20:00,
2013-01-07 08:35:00,31.5,31.0,29.92,ESE,112,1.7,-999.0,98,-99.99,,,0.00,Acu-Link.com,2013-01-07 13:35:00,
2013-01-07 08:50:00,33.3,32.8,29.92,NE,45,0.0,-999.0,98,-99.99,,,0.00,Acu-Link.com,2013-01-07 13:50:00,
2013-01-07 09:06:00,34.7,34.2,29.92,NNE,22,0.0,-999.0,98,-99.99,,,0.00,Acu-Link.com,2013-01-07 14:06:00,
2013-01-07 09:21:00,39.4,35.9,29.92,NW,315,2.7,-999.0,87,-99.99,,,0.00,Acu-Link.com,2013-01-07 14:21:00,
2013-01-07 09:36:00,40.5,36.4,29.92,SW,225,3.7,-999.0,85,-99.99,,,0.00,Acu-Link.com,2013-01-07 14:36:00,
2013-01-07 09:52:00,42.1,36.7,29.92,North,0,1.7,-999.0,81,-99.99,,,0.00,Acu-Link.com,2013-01-07 14:52:00,
2013-01-07 10:07:00,43.7,37.6,29.92,WSW,247,3.2,-999.0,79,-99.99,,,0.00,Acu-Link.com,2013-01-07 15:07:00,
2013-01-07 10:22:00,44.6,37.5,29.92,North,0,2.2,-999.0,76,-99.99,,,0.00,Acu-Link.com,2013-01-07 15:22:00,
2013-01-07 10:38:00,46.2,38.4,29.92,NNE,22,4.2,-999.0,74,-99.99,,,0.00,Acu-Link.com,2013-01-07 15:38:00,
2013-01-07 10:53:00,46.6,37.0,29.92,NNE,22,4.2,-999.0,69,-99.99,,,0.00,Acu-Link.com,2013-01-07 15:53:00,
2013-01-07 11:08:00,47.3,37.3,29.92,WSW,247,2.7,-999.0,68,-99.99,,,0.00,Acu-Link.com,2013-01-07 16:08:00,
2013-01-07 11:23:00,48.0,39.1,29.92,WNW,292,3.2,-999.0,71,-99.99,,,0.00,Acu-Link.com,2013-01-07 16:23:00,
2013-01-07 11:39:00,48.2,38.1,29.92,NNE,22,4.2,-999.0,68,-99.99,,,0.00,Acu-Link.com,2013-01-07 16:39:00,
2013-01-07 11:54:00,49.1,37.8,29.92,NE,45,2.7,-999.0,65,-99.99,,,0.00,Acu-Link.com,2013-01-07 16:54:00,
2013-01-07 12:10:00,50.2,38.1,29.92,West,270,3.2,-999.0,63,-99.99,,,0.00,Acu-Link.com,2013-01-07 17:10:00,
2013-01-07 12:25:00,52.0,39.0,29.92,NE,45,3.7,-999.0,61,-99.99,,,0.00,Acu-Link.com,2013-01-07 17:25:00,
2013-01-07 12:41:00,51.3,37.9,29.92,WNW,292,2.2,-999.0,60,-99.99,,,0.00,Acu-Link.com,2013-01-07 17:41:00,
2013-01-07 12:56:00,51.6,37.7,29.92,SSE,157,2.7,-999.0,59,-99.99,,,0.00,Acu-Link.com,2013-01-07 17:56:00,
2013-01-07 13:11:00,51.3,38.3,29.92,SSW,202,2.7,-999.0,61,-99.99,,,0.00,Acu-Link.com,2013-01-07 18:11:00,
2013-01-07 13:26:00,51.6,37.3,29.92,NNW,337,2.2,-999.0,58,-99.99,,,0.00,Acu-Link.com,2013-01-07 18:26:00,
2013-01-07 13:42:00,51.1,37.3,29.92,ENE,67,2.2,-999.0,59,-99.99,,,0.00,Acu-Link.com,2013-01-07 18:42:00,
2013-01-07 13:57:00,51.4,37.1,29.92,West,270,2.2,-999.0,58,-99.99,,,0.00,Acu-Link.com,2013-01-07 18:57:00,
2013-01-07 14:12:00,53.8,38.0,29.92,NE,45,3.2,-999.0,55,-99.99,,,0.00,Acu-Link.com,2013-01-07 19:12:00,
2013-01-07 14:28:00,52.0,36.8,29.92,West,270,2.7,-999.0,56,-99.99,,,0.00,Acu-Link.com,2013-01-07 19:28:00,
2013-01-07 14:43:00,51.1,36.4,29.92,NNE,22,2.2,-999.0,57,-99.99,,,0.00,Acu-Link.com,2013-01-07 19:43:00,
2013-01-07 14:58:00,51.3,37.0,29.92,SSE,157,1.7,-999.0,58,-99.99,,,0.00,Acu-Link.com,2013-01-07 19:58:00,
2013-01-07 15:14:00,50.9,37.5,29.92,NNE,22,1.1,-999.0,60,-99.99,,,0.00,Acu-Link.com,2013-01-07 20:14:00,
2013-01-07 15:29:00,50.7,37.3,29.92,NNE,22,1.7,-999.0,60,-99.99,,,0.00,Acu-Link.com,2013-01-07 20:29:00,
2013-01-07 15:44:00,50.7,37.7,29.92,NNE,22,2.2,-999.0,61,-99.99,,,0.00,Acu-Link.com,2013-01-07 20:44:00,
2013-01-07 15:59:00,50.0,36.7,29.92,SE,135,2.2,-999.0,60,-99.99,,,0.00,Acu-Link.com,2013-01-07 20:59:00,
2013-01-07 16:15:00,50.9,37.5,29.92,South,180,0.0,-999.0,60,-99.99,,,0.00,Acu-Link.com,2013-01-07 21:15:00,
2013-01-07 16:30:00,49.8,37.3,29.92,NE,45,1.1,-999.0,62,-99.99,,,0.00,Acu-Link.com,2013-01-07 21:30:00,
2013-01-07 16:45:00,49.5,36.6,29.92,SSE,157,0.0,-999.0,61,-99.99,,,0.00,Acu-Link.com,2013-01-07 21:45:00,
2013-01-07 17:01:00,47.7,36.9,29.92,ESE,112,0.0,-999.0,66,-99.99,,,0.00,Acu-Link.com,2013-01-07 22:01:00,
2013-01-07 17:16:00,45.3,36.5,29.92,ESE,112,0.0,-999.0,71,-99.99,,,0.00,Acu-Link.com,2013-01-07 22:16:00,
2013-01-07 17:31:00,43.9,36.8,29.92,ESE,112,0.0,-999.0,76,-99.99,,,0.00,Acu-Link.com,2013-01-07 22:31:00,
2013-01-07 17:47:00,42.3,36.6,29.92,ESE,112,0.0,-999.0,80,-99.99,,,0.00,Acu-Link.com,2013-01-07 22:47:00,
2013-01-07 18:02:00,41.2,36.7,29.92,ESE,112,0.0,-999.0,84,-99.99,,,0.00,Acu-Link.com,2013-01-07 23:02:00,
2013-01-07 18:17:00,40.5,36.6,29.92,ESE,112,0.0,-999.0,86,-99.99,,,0.00,Acu-Link.com,2013-01-07 23:17:00,
2013-01-07 18:32:00,39.6,36.3,29.92,ESE,112,0.0,-999.0,88,-99.99,,,0.00,Acu-Link.com,2013-01-07 23:32:00,
2013-01-07 18:48:00,39.0,36.3,29.92,East,90,0.0,-999.0,90,-99.99,,,0.00,Acu-Link.com,2013-01-07 23:48:00,
2013-01-07 19:03:00,38.5,36.1,29.92,SE,135,0.0,-999.0,91,-99.99,,,0.00,Acu-Link.com,2013-01-08 00:03:00,
2013-01-07 19:18:00,37.6,35.5,29.92,SE,135,0.0,-999.0,92,-99.99,,,0.00,Acu-Link.com,2013-01-08 00:18:00,
2013-01-07 19:34:00,37.0,35.4,29.92,ESE,112,0.0,-999.0,94,-99.99,,,0.00,Acu-Link.com,2013-01-08 00:34:00,
2013-01-07 19:49:00,36.7,35.4,29.92,SE,135,0.0,-999.0,95,-99.99,,,0.00,Acu-Link.com,2013-01-08 00:49:00,
2013-01-07 20:04:00,36.3,35.3,29.92,SSE,157,0.0,-999.0,96,-99.99,,,0.00,Acu-Link.com,2013-01-08 01:04:00,
2013-01-07 20:20:00,36.0,35.2,29.92,SSE,157,0.0,-999.0,97,-99.99,,,0.00,Acu-Link.com,2013-01-08 01:20:00,
2013-01-07 20:35:00,35.6,34.8,29.92,ESE,112,0.0,-999.0,97,-99.99,,,0.00,Acu-Link.com,2013-01-08 01:35:00,
2013-01-07 20:50:00,35.2,34.7,29.92,ESE,112,0.0,-999.0,98,-99.99,,,0.00,Acu-Link.com,2013-01-08 01:50:00,
2013-01-07 21:05:00,35.2,34.7,29.92,SE,135,0.0,-999.0,98,-99.99,,,0.00,Acu-Link.com,2013-01-08 02:05:00,
2013-01-07 21:21:00,34.9,34.4,29.92,ESE,112,0.0,-999.0,98,-99.99,,,0.00,Acu-Link.com,2013-01-08 02:21:00,
2013-01-07 21:36:00,34.5,34.0,29.92,ESE,112,0.0,-999.0,98,-99.99,,,0.00,Acu-Link.com,2013-01-08 02:36:00,
2013-01-07 21:52:00,34.3,33.8,29.92,ESE,112,0.0,-999.0,98,-99.99,,,0.00,Acu-Link.com,2013-01-08 02:52:00,
2013-01-07 22:07:00,34.2,33.7,29.92,SE,135,0.0,-999.0,98,-99.99,,,0.00,Acu-Link.com,2013-01-08 03:07:00,
2013-01-07 22:22:00,34.0,33.5,29.92,SSE,157,0.0,-999.0,98,-99.99,,,0.00,Acu-Link.com,2013-01-08 03:22:00,
2013-01-07 22:38:00,33.8,33.3,29.92,SSE,157,0.0,-999.0,98,-99.99,,,0.00,Acu-Link.com,2013-01-08 03:38:00,
2013-01-07 22:53:00,33.8,33.3,29.92,SSE,157,0.0,-999.0,98,-99.99,,,0.00,Acu-Link.com,2013-01-08 03:53:00,
2013-01-07 23:08:00,33.6,33.1,29.92,SE,135,0.0,-999.0,98,-99.99,,,0.00,Acu-Link.com,2013-01-08 04:08:00,
2013-01-07 23:23:00,33.8,33.3,29.92,SE,135,0.0,-999.0,98,-99.99,,,0.00,Acu-Link.com,2013-01-08 04:23:00,
2013-01-07 23:39:00,33.8,33.3,29.92,ESE,112,0.0,-999.0,98,-99.99,,,0.00,Acu-Link.com,2013-01-08 04:39:00,
2013-01-07 23:54:00,33.6,33.1,29.92,SE,135,0.0,-999.0,98,-99.99,,,0.00,Acu-Link.com,2013-01-08 04:54:00,